When you browse on this site, cookies collect data to enhance your experience and personalize the content and advertising you see.
Visit our Privacy Policy to learn more. By continuing to use the site, you agree to this use of cookies and data.
  • En España
  • Lista de países
  • Para 7 días
  • Temperatura del agua
  • El tiempo en el mapa
  • Informadores
  • user-avatar
    Iniciar sesión

    Tiempo cada hora Gusyatin

    Hoy, 6 Junio, Sábado

    Tiempo Temperatura Precipitaciones Viento Presión Humedad
    00:00 +17°C° 0 mm 3 mps 732 mmHg 87%
    01:00 +16°C° 0 mm 2 mps 732 mmHg 86%
    02:00 +16°C° 0 mm 2 mps 733 mmHg 87%
    03:00 +17°C° 0.6 mm 2 mps 733 mmHg 88%
    04:00 +17°C° 0.6 mm 2 mps 733 mmHg 89%
    05:00 +17°C° 0.6 mm 2 mps 734 mmHg 90%
    06:00 +18°C° 0.1 mm 2 mps 734 mmHg 88%
    07:00 +19°C° 0.1 mm 2 mps 735 mmHg 85%
    08:00 +20°C° 0 mm 2 mps 735 mmHg 82%
    09:00 +22°C° 0.4 mm 3 mps 736 mmHg 77%
    10:00 +24°C° 0.4 mm 3 mps 736 mmHg 73%
    11:00 +25°C° 0.4 mm 3 mps 736 mmHg 69%
    12:00 +25°C° 0.1 mm 2 mps 736 mmHg 66%
    13:00 +26°C° 0.1 mm 2 mps 736 mmHg 64%
    14:00 +26°C° 0.1 mm 1 mps 736 mmHg 61%
    15:00 +26°C° 1.1 mm 1 mps 736 mmHg 66%
    16:00 +25°C° 1.1 mm 2 mps 736 mmHg 71%
    17:00 +25°C° 1.1 mm 2 mps 736 mmHg 76%
    18:00 +23°C° 1 mm 2 mps 736 mmHg 81%
    19:00 +21°C° 1 mm 2 mps 736 mmHg 86%
    20:00 +20°C° 1 mm 3 mps 736 mmHg 90%
    21:00 +19°C° 1.6 mm 4 mps 736 mmHg 91%
    22:00 +19°C° 1.6 mm 4 mps 736 mmHg 91%
    23:00 +19°C° 1.6 mm 5 mps 736 mmHg 92%

    Mañana, 7 Junio, Domingo

    Tiempo Temperatura Precipitaciones Viento Presión Humedad
    00:00 +19°C° 0.3 mm 5 mps 736 mmHg 93%
    01:00 +17°C° 0.3 mm 5 mps 736 mmHg 94%
    02:00 +18°C° 0.3 mm 4 mps 736 mmHg 95%
    03:00 +17°C° 0 mm 4 mps 736 mmHg 93%
    04:00 +17°C° 0 mm 4 mps 736 mmHg 91%
    05:00 +15°C° 0 mm 4 mps 735 mmHg 90%
    06:00 +17°C° 0 mm 4 mps 735 mmHg 87%
    07:00 +17°C° 0 mm 5 mps 736 mmHg 84%
    08:00 +19°C° 0 mm 6 mps 736 mmHg 81%
    09:00 +21°C° 0 mm 6 mps 736 mmHg 77%
    10:00 +22°C° 0 mm 7 mps 736 mmHg 73%
    11:00 +23°C° 0 mm 7 mps 736 mmHg 69%
    12:00 +24°C° 0 mm 7 mps 736 mmHg 68%
    13:00 +26°C° 0 mm 7 mps 736 mmHg 66%
    14:00 +26°C° 0 mm 8 mps 736 mmHg 64%
    15:00 +26°C° 0 mm 7 mps 736 mmHg 67%
    16:00 +26°C° 0 mm 6 mps 736 mmHg 69%
    17:00 +26°C° 0 mm 6 mps 735 mmHg 72%
    18:00 +23°C° 0 mm 6 mps 736 mmHg 73%
    19:00 +22°C° 0 mm 5 mps 736 mmHg 75%
    20:00 +21°C° 0 mm 5 mps 736 mmHg 76%
    21:00 +20°C° 0 mm 4 mps 736 mmHg 77%
    22:00 +19°C° 0 mm 3 mps 736 mmHg 79%
    23:00 +18°C° 0 mm 2 mps 737 mmHg 80%

    Pasado mañana, 8 Junio, Lunes

    Tiempo Temperatura Precipitaciones Viento Presión Humedad
    00:00 +18°C° 0 mm 2 mps 737 mmHg 82%
    01:00 +17°C° 0 mm 3 mps 737 mmHg 84%
    02:00 +17°C° 0 mm 3 mps 737 mmHg 85%
    03:00 +17°C° 0 mm 3 mps 736 mmHg 85%
    04:00 +16°C° 0 mm 3 mps 736 mmHg 84%
    05:00 +16°C° 0 mm 3 mps 736 mmHg 83%
    06:00 +18°C° 0 mm 3 mps 736 mmHg 82%
    07:00 +19°C° 0 mm 4 mps 736 mmHg 80%
    08:00 +21°C° 0 mm 4 mps 736 mmHg 78%
    09:00 +22°C° 0 mm 4 mps 736 mmHg 75%
    10:00 +23°C° 0 mm 5 mps 736 mmHg 72%
    11:00 +25°C° 0 mm 5 mps 736 mmHg 70%
    12:00 +26°C° 0 mm 5 mps 736 mmHg 69%
    13:00 +26°C° 0 mm 5 mps 736 mmHg 68%
    14:00 +26°C° 0 mm 6 mps 735 mmHg 68%
    15:00 +26°C° 0 mm 5 mps 735 mmHg 69%
    16:00 +26°C° 0 mm 5 mps 735 mmHg 70%
    17:00 +26°C° 0 mm 4 mps 735 mmHg 72%
    18:00 +25°C° 0.3 mm 4 mps 735 mmHg 76%
    19:00 +24°C° 0.3 mm 3 mps 735 mmHg 80%
    20:00 +23°C° 0.3 mm 2 mps 735 mmHg 84%
    21:00 +21°C° 1.2 mm 2 mps 735 mmHg 86%
    22:00 +20°C° 1.2 mm 2 mps 736 mmHg 89%
    23:00 +19°C° 1.2 mm 3 mps 736 mmHg 91%

    9 Junio, Martes

    Tiempo Temperatura Precipitaciones Viento Presión Humedad
    00:00 +19°C° 0.3 mm 3 mps 736 mmHg 91%
    01:00 +19°C° 0.3 mm 3 mps 736 mmHg 92%
    02:00 +18°C° 0.3 mm 3 mps 736 mmHg 92%
    03:00 +18°C° 0 mm 2 mps 736 mmHg 92%
    04:00 +18°C° 0 mm 2 mps 736 mmHg 93%
    05:00 +18°C° 0 mm 1 mps 736 mmHg 93%
    06:00 +20°C° 0 mm 1 mps 736 mmHg 90%
    07:00 +21°C° 0 mm 1 mps 737 mmHg 87%
    08:00 +22°C° 0 mm 1 mps 737 mmHg 83%
    09:00 +23°C° 0 mm 2 mps 737 mmHg 79%
    10:00 +24°C° 0 mm 2 mps 737 mmHg 75%
    11:00 +25°C° 0 mm 2 mps 737 mmHg 70%
    12:00 +26°C° 0 mm 2 mps 737 mmHg 68%
    13:00 +26°C° 0 mm 2 mps 737 mmHg 66%
    14:00 +27°C° 0 mm 2 mps 737 mmHg 64%
    15:00 +27°C° 0.1 mm 2 mps 737 mmHg 66%
    16:00 +27°C° 0.1 mm 2 mps 737 mmHg 67%
    17:00 +27°C° 0.1 mm 2 mps 737 mmHg 69%
    18:00 +25°C° 1 mm 2 mps 737 mmHg 75%
    19:00 +24°C° 1 mm 2 mps 737 mmHg 80%
    20:00 +21°C° 1 mm 2 mps 737 mmHg 86%
    21:00 +21°C° 0.9 mm 2 mps 737 mmHg 88%
    22:00 +21°C° 0.9 mm 1 mps 737 mmHg 90%
    23:00 +20°C° 0.9 mm 1 mps 737 mmHg 91%

    10 Junio, Miércoles

    Tiempo Temperatura Precipitaciones Viento Presión Humedad
    00:00 +20°C° 1.2 mm 1 mps 737 mmHg 93%
    01:00 +20°C° 1.2 mm 1 mps 736 mmHg 94%
    02:00 +19°C° 1.2 mm 1 mps 736 mmHg 95%
    03:00 +19°C° 0.2 mm 1 mps 736 mmHg 95%
    04:00 +19°C° 0.2 mm 1 mps 736 mmHg 95%
    05:00 +19°C° 0.2 mm 1 mps 736 mmHg 95%
    06:00 +20°C° 0 mm 1 mps 736 mmHg 93%
    07:00 +21°C° 0 mm 1 mps 736 mmHg 90%
    08:00 +23°C° 0 mm 1 mps 736 mmHg 87%
    09:00 +24°C° 0.6 mm 2 mps 736 mmHg 83%
    10:00 +25°C° 0.6 mm 2 mps 736 mmHg 79%
    11:00 +26°C° 0.6 mm 3 mps 736 mmHg 75%
    12:00 +27°C° 0.6 mm 3 mps 736 mmHg 74%
    13:00 +27°C° 0.6 mm 3 mps 736 mmHg 73%
    14:00 +28°C° 0.6 mm 4 mps 735 mmHg 71%
    15:00 +27°C° 0.9 mm 3 mps 735 mmHg 74%
    16:00 +27°C° 0.9 mm 3 mps 735 mmHg 76%
    17:00 +26°C° 0.9 mm 3 mps 735 mmHg 79%
    18:00 +25°C° 0.5 mm 2 mps 735 mmHg 80%
    19:00 +24°C° 0.5 mm 2 mps 735 mmHg 82%
    20:00 +22°C° 0.5 mm 1 mps 734 mmHg 84%
    21:00 +21°C° 0.1 mm 2 mps 734 mmHg 85%
    22:00 +20°C° 0.1 mm 2 mps 734 mmHg 85%
    23:00 +19°C° 0.1 mm 2 mps 735 mmHg 86%

    11 Junio, Jueves

    Tiempo Temperatura Precipitaciones Viento Presión Humedad
    00:00 +19°C° 0.7 mm 2 mps 734 mmHg 88%
    01:00 +19°C° 0.7 mm 2 mps 734 mmHg 90%
    02:00 +19°C° 0.7 mm 2 mps 734 mmHg 92%
    03:00 +19°C° 0.2 mm 2 mps 734 mmHg 92%
    04:00 +19°C° 0.2 mm 2 mps 734 mmHg 93%
    05:00 +18°C° 0.2 mm 2 mps 734 mmHg 93%
    06:00 +20°C° 0 mm 2 mps 734 mmHg 90%
    07:00 +21°C° 0 mm 2 mps 734 mmHg 88%
    08:00 +22°C° 0 mm 3 mps 734 mmHg 86%
    09:00 +24°C° 0.4 mm 3 mps 734 mmHg 82%
    10:00 +25°C° 0.4 mm 3 mps 734 mmHg 79%
    11:00 +26°C° 0.4 mm 3 mps 734 mmHg 76%
    12:00 +26°C° 1 mm 4 mps 733 mmHg 74%
    13:00 +27°C° 1 mm 4 mps 733 mmHg 73%
    14:00 +27°C° 1 mm 5 mps 733 mmHg 71%
    15:00 +27°C° 1.3 mm 5 mps 733 mmHg 74%
    16:00 +27°C° 1.3 mm 4 mps 733 mmHg 76%
    17:00 +26°C° 1.3 mm 4 mps 733 mmHg 79%
    18:00 +25°C° 1.1 mm 4 mps 733 mmHg 80%
    19:00 +24°C° 1.1 mm 3 mps 733 mmHg 81%
    20:00 +23°C° 1.1 mm 2 mps 733 mmHg 82%
    21:00 +21°C° 0 mm 3 mps 732 mmHg 84%
    22:00 +20°C° 0 mm 3 mps 732 mmHg 86%
    23:00 +20°C° 0 mm 3 mps 732 mmHg 88%
    Mostrar más